RYR4TB LPPR-LPPT

Flight info

Callsign RYR4TB
Flight time 0h 42m
Altitude 31000
Route MANIK DCT ABRIL DCT XAMAX
Aircraft B38M/M-SDE1FGHILORVWXY/HB1

Departure

Time 2026-05-07 16:29
Airport Francisco de Sá Carneiro Airport (LPPR)

Arrival

Time 2026-05-07 17:11
Airport Lisbon Humberto Delgado Airport (LPPT)
Time Latitude Longitude Altitude Speed Heading
2026-05-07 15:42 41.23732 -8.67270 238 ft 0 kts 68°
2026-05-07 15:44 41.23777 -8.67292 237 ft 0 kts 50°
2026-05-07 16:21 41.23776 -8.67293 237 ft 2 kts 50°
2026-05-07 16:21 41.23761 -8.67320 237 ft 4 kts 59°
2026-05-07 16:21 41.23749 -8.67352 237 ft 4 kts 70°
2026-05-07 16:22 41.23742 -8.67386 237 ft 4 kts 83°
2026-05-07 16:22 41.23743 -8.67421 237 ft 4 kts 102°
2026-05-07 16:22 41.23751 -8.67448 237 ft 0 kts 126°
2026-05-07 16:26 41.23750 -8.67447 237 ft 1 kts 126°
2026-05-07 16:26 41.23744 -8.67441 237 ft 3 kts 154°
2026-05-07 16:27 41.23664 -8.67443 237 ft 15 kts 193°
2026-05-07 16:27 41.23622 -8.67525 237 ft 12 kts 264°
2026-05-07 16:27 41.23604 -8.67660 237 ft 16 kts 259°
2026-05-07 16:27 41.23590 -8.67791 237 ft 7 kts 287°
2026-05-07 16:28 41.23629 -8.67814 237 ft 7 kts 346°
2026-05-07 16:28 41.23745 -8.67844 237 ft 44 kts 348°
2026-05-07 16:28 41.24309 -8.67992 239 ft 118 kts 349°
2026-05-07 16:28 41.25311 -8.68243 300 ft 168 kts 347°
2026-05-07 16:29 41.26493 -8.68523 981 ft 176 kts 342°
2026-05-07 16:29 41.27684 -8.69049 1712 ft 187 kts 339°
2026-05-07 16:29 41.29000 -8.69483 2313 ft 211 kts 344°
2026-05-07 16:29 41.30560 -8.69893 2833 ft 240 kts 346°
2026-05-07 16:30 41.32201 -8.70301 3939 ft 243 kts 347°
2026-05-07 16:30 41.33902 -8.70821 4713 ft 259 kts 333°
2026-05-07 16:30 41.35302 -8.72364 5366 ft 271 kts 298°
2026-05-07 16:30 41.35793 -8.74716 6344 ft 263 kts 262°
2026-05-07 16:31 41.35235 -8.76964 7187 ft 263 kts 230°
2026-05-07 16:31 41.33808 -8.78400 8110 ft 260 kts 198°
2026-05-07 16:31 41.32009 -8.78743 9008 ft 267 kts 175°
2026-05-07 16:31 41.30193 -8.78174 9963 ft 270 kts 166°
2026-05-07 16:32 41.28299 -8.77650 10570 ft 286 kts 170°
2026-05-07 16:32 41.26268 -8.77151 11005 ft 307 kts 170°
2026-05-07 16:32 41.24094 -8.76619 11399 ft 327 kts 170°
2026-05-07 16:32 41.21801 -8.76053 11886 ft 342 kts 169°
2026-05-07 16:33 41.19422 -8.75449 12471 ft 353 kts 169°
2026-05-07 16:33 41.16994 -8.74812 13297 ft 356 kts 169°
2026-05-07 16:33 41.14577 -8.74160 13982 ft 362 kts 169°
2026-05-07 16:33 41.12066 -8.73478 14700 ft 365 kts 169°
2026-05-07 16:34 41.09601 -8.72791 15340 ft 370 kts 169°
2026-05-07 16:34 41.07062 -8.72090 15936 ft 375 kts 169°
2026-05-07 16:34 41.04493 -8.71379 16609 ft 379 kts 169°
2026-05-07 16:34 41.01887 -8.70657 17155 ft 385 kts 169°
2026-05-07 16:35 40.99252 -8.69928 17813 ft 389 kts 169°
2026-05-07 16:35 40.96594 -8.69190 18343 ft 395 kts 169°
2026-05-07 16:35 40.93891 -8.68442 18875 ft 398 kts 170°
2026-05-07 16:35 40.91154 -8.67683 19349 ft 404 kts 169°
2026-05-07 16:36 40.88385 -8.66916 19852 ft 408 kts 171°
2026-05-07 16:36 40.85589 -8.66144 20366 ft 412 kts 170°
2026-05-07 16:36 40.82766 -8.65361 20848 ft 417 kts 171°
2026-05-07 16:36 40.79912 -8.64573 21327 ft 420 kts 171°
2026-05-07 16:37 40.77075 -8.63787 21831 ft 424 kts 171°
2026-05-07 16:37 40.74170 -8.62985 22319 ft 427 kts 171°
2026-05-07 16:37 40.72201 -8.62442 22650 ft 430 kts 170°
2026-05-07 16:37 40.68279 -8.61534 22998 ft 433 kts 179°
2026-05-07 16:38 40.65248 -8.61248 23106 ft 440 kts 178°
2026-05-07 16:38 40.62160 -8.60889 23079 ft 451 kts 177°
2026-05-07 16:38 40.60034 -8.60628 23079 ft 457 kts 177°
2026-05-07 16:38 40.56843 -8.60225 23066 ft 464 kts 177°
2026-05-07 16:39 40.53661 -8.59818 23083 ft 466 kts 177°
2026-05-07 16:39 40.50439 -8.59413 23106 ft 449 kts 177°
2026-05-07 16:39 40.47427 -8.59045 23110 ft 431 kts 177°
2026-05-07 16:39 40.44499 -8.58684 23121 ft 413 kts 177°
2026-05-07 16:40 40.41686 -8.58339 23126 ft 402 kts 177°
2026-05-07 16:40 40.38906 -8.57997 23093 ft 401 kts 177°
2026-05-07 16:40 40.36130 -8.57656 23094 ft 400 kts 177°
2026-05-07 16:40 40.33335 -8.57313 22952 ft 410 kts 177°
2026-05-07 16:41 40.30446 -8.56959 22834 ft 422 kts 177°
2026-05-07 16:41 40.27485 -8.56596 22848 ft 433 kts 177°
2026-05-07 16:41 40.24485 -8.56229 22867 ft 443 kts 177°
2026-05-07 16:41 40.21384 -8.55849 22864 ft 451 kts 177°
2026-05-07 16:42 40.18240 -8.55465 22874 ft 456 kts 177°
2026-05-07 16:42 40.15076 -8.55079 22878 ft 456 kts 177°
2026-05-07 16:42 40.11917 -8.54693 22889 ft 455 kts 177°
2026-05-07 16:42 40.08754 -8.54307 22891 ft 455 kts 177°
2026-05-07 16:43 40.05603 -8.53926 22894 ft 455 kts 178°
2026-05-07 16:43 40.02471 -8.54095 22873 ft 448 kts 194°
2026-05-07 16:43 39.99535 -8.55390 22904 ft 445 kts 204°
2026-05-07 16:43 39.96643 -8.56850 22890 ft 446 kts 203°
2026-05-07 16:44 39.93734 -8.58294 22900 ft 446 kts 203°
2026-05-07 16:44 39.90878 -8.59713 22895 ft 444 kts 203°
2026-05-07 16:44 39.87992 -8.61147 22902 ft 444 kts 203°
2026-05-07 16:44 39.85113 -8.62576 22898 ft 444 kts 203°
2026-05-07 16:45 39.82227 -8.64007 22905 ft 444 kts 203°
2026-05-07 16:45 39.79341 -8.65438 22910 ft 443 kts 203°
2026-05-07 16:45 39.76454 -8.66867 22908 ft 443 kts 203°
2026-05-07 16:45 39.73567 -8.68295 22934 ft 443 kts 203°
2026-05-07 16:46 39.70681 -8.69721 22965 ft 445 kts 203°
2026-05-07 16:46 39.67833 -8.71126 22331 ft 431 kts 203°
2026-05-07 16:46 39.65091 -8.72478 21797 ft 413 kts 202°
2026-05-07 16:46 39.62450 -8.73780 21194 ft 399 kts 202°
2026-05-07 16:47 39.59866 -8.75052 20620 ft 396 kts 202°
2026-05-07 16:47 39.57279 -8.76268 20020 ft 395 kts 201°
2026-05-07 16:47 39.54678 -8.77431 19427 ft 395 kts 200°
2026-05-07 16:47 39.52087 -8.78600 18847 ft 392 kts 201°
2026-05-07 16:48 39.49556 -8.79741 18306 ft 380 kts 201°
2026-05-07 16:48 39.47091 -8.80846 17701 ft 369 kts 201°
2026-05-07 16:48 39.44738 -8.81916 17171 ft 357 kts 202°
2026-05-07 16:48 39.42623 -8.83470 16645 ft 345 kts 221°
2026-05-07 16:49 39.40969 -8.85682 16167 ft 341 kts 228°
2026-05-07 16:49 39.39424 -8.87993 15705 ft 338 kts 229°
2026-05-07 16:49 39.37900 -8.90304 15276 ft 338 kts 229°
2026-05-07 16:49 39.36380 -8.92622 14867 ft 339 kts 229°
2026-05-07 16:50 39.34868 -8.94956 14459 ft 338 kts 229°
2026-05-07 16:50 39.33367 -8.97306 14047 ft 338 kts 228°
2026-05-07 16:50 39.31886 -8.99615 13652 ft 337 kts 229°
2026-05-07 16:50 39.30380 -9.01977 13211 ft 336 kts 229°
2026-05-07 16:51 39.28924 -9.04278 12820 ft 334 kts 229°
2026-05-07 16:51 39.27463 -9.06599 12459 ft 331 kts 229°
2026-05-07 16:51 39.26007 -9.08885 12099 ft 328 kts 229°
2026-05-07 16:51 39.24560 -9.11150 11785 ft 325 kts 229°
2026-05-07 16:52 39.23138 -9.13393 11630 ft 321 kts 229°
2026-05-07 16:52 39.21717 -9.15627 11534 ft 322 kts 229°
2026-05-07 16:52 39.20297 -9.17849 11410 ft 321 kts 229°
2026-05-07 16:52 39.18879 -9.20067 11292 ft 320 kts 228°
2026-05-07 16:53 39.17471 -9.22288 11188 ft 317 kts 229°
2026-05-07 16:53 39.16073 -9.24484 11082 ft 318 kts 229°
2026-05-07 16:53 39.14523 -9.26508 10969 ft 316 kts 215°
2026-05-07 16:53 39.12661 -9.28001 10883 ft 315 kts 209°
2026-05-07 16:54 39.10762 -9.29397 10767 ft 313 kts 208°
2026-05-07 16:54 39.08896 -9.30761 10649 ft 313 kts 208°
2026-05-07 16:54 39.07001 -9.32142 10527 ft 314 kts 208°
2026-05-07 16:54 39.05098 -9.33527 10413 ft 312 kts 209°
2026-05-07 16:55 39.03215 -9.34904 10308 ft 310 kts 208°
2026-05-07 16:55 39.01346 -9.36272 10195 ft 310 kts 208°
2026-05-07 16:55 38.99466 -9.37643 10068 ft 310 kts 209°
2026-05-07 16:55 38.97583 -9.39007 9972 ft 311 kts 208°
2026-05-07 16:56 38.95712 -9.40376 9865 ft 309 kts 208°
2026-05-07 16:56 38.93856 -9.41741 9620 ft 305 kts 209°
2026-05-07 16:56 38.90167 -9.44441 9182 ft 306 kts 209°
2026-05-07 16:57 38.88323 -9.45795 9018 ft 305 kts 208°
2026-05-07 16:57 38.86483 -9.47144 8884 ft 305 kts 208°
2026-05-07 16:57 38.84620 -9.48492 8755 ft 307 kts 208°
2026-05-07 16:57 38.82762 -9.49834 8631 ft 307 kts 208°
2026-05-07 16:58 38.80896 -9.51181 8543 ft 306 kts 208°
2026-05-07 16:58 38.79061 -9.52502 8472 ft 305 kts 208°
2026-05-07 16:58 38.77219 -9.53828 8113 ft 304 kts 208°
2026-05-07 16:58 38.75375 -9.55153 7941 ft 302 kts 208°
2026-05-07 16:59 38.73469 -9.56300 7912 ft 303 kts 194°
2026-05-07 16:59 38.71379 -9.56454 7920 ft 304 kts 173°
2026-05-07 16:59 38.69302 -9.55926 7933 ft 304 kts 169°
2026-05-07 16:59 38.67232 -9.55336 7924 ft 303 kts 168°
2026-05-07 17:00 38.65188 -9.54752 7919 ft 305 kts 166°
2026-05-07 17:00 38.63281 -9.53590 7907 ft 308 kts 144°
2026-05-07 17:00 38.61548 -9.51964 7909 ft 308 kts 152°
2026-05-07 17:00 38.59606 -9.50811 7929 ft 308 kts 159°
2026-05-07 17:01 38.57632 -9.49760 7924 ft 307 kts 159°
2026-05-07 17:01 38.55665 -9.48708 7921 ft 306 kts 159°
2026-05-07 17:01 38.53730 -9.47670 7926 ft 295 kts 159°
2026-05-07 17:01 38.51873 -9.46691 7921 ft 281 kts 159°
2026-05-07 17:02 38.50113 -9.45757 7896 ft 269 kts 159°
2026-05-07 17:02 38.48412 -9.44850 7781 ft 260 kts 159°
2026-05-07 17:02 38.46771 -9.43977 7644 ft 252 kts 159°
2026-05-07 17:02 38.45209 -9.43041 7498 ft 245 kts 146°
2026-05-07 17:03 38.44119 -9.41444 7338 ft 244 kts 116°
2026-05-07 17:03 38.43690 -9.39389 7184 ft 248 kts 100°
2026-05-07 17:03 38.43478 -9.37202 7002 ft 249 kts 99°
2026-05-07 17:03 38.43289 -9.35003 6780 ft 250 kts 97°
2026-05-07 17:04 38.43176 -9.32800 6545 ft 250 kts 83°
2026-05-07 17:04 38.43785 -9.30752 6305 ft 249 kts 53°
2026-05-07 17:04 38.45113 -9.29334 6056 ft 248 kts 22°
2026-05-07 17:04 38.46742 -9.28748 5827 ft 247 kts 10°
2026-05-07 17:05 38.48435 -9.28364 5605 ft 246 kts
2026-05-07 17:05 38.50110 -9.28021 5370 ft 243 kts
2026-05-07 17:05 38.51729 -9.27504 5199 ft 237 kts 16°
2026-05-07 17:05 38.53262 -9.26816 4989 ft 229 kts 20°
2026-05-07 17:06 38.54727 -9.26070 4701 ft 224 kts 21°
2026-05-07 17:06 38.56153 -9.25313 4403 ft 219 kts 21°
2026-05-07 17:06 38.57549 -9.24569 4131 ft 214 kts 21°
2026-05-07 17:06 38.58891 -9.23856 3964 ft 203 kts 21°
2026-05-07 17:07 38.60174 -9.23171 3777 ft 199 kts 19°
2026-05-07 17:07 38.61443 -9.22497 3539 ft 198 kts 18°
2026-05-07 17:07 38.62710 -9.21823 3294 ft 196 kts 20°
2026-05-07 17:07 38.63968 -9.21153 3071 ft 196 kts 19°
2026-05-07 17:08 38.65211 -9.20490 2799 ft 194 kts 18°
2026-05-07 17:08 38.66456 -9.19828 2526 ft 193 kts 19°
2026-05-07 17:08 38.67649 -9.19183 2314 ft 177 kts 18°
2026-05-07 17:08 38.68744 -9.18603 2049 ft 166 kts 16°
2026-05-07 17:09 38.69811 -9.18039 1829 ft 166 kts 17°
2026-05-07 17:09 38.70843 -9.17488 1639 ft 152 kts 17°
2026-05-07 17:09 38.71791 -9.16979 1436 ft 145 kts 16°
2026-05-07 17:09 38.72719 -9.16487 1186 ft 144 kts 15°
2026-05-07 17:10 38.73653 -9.15991 1093 ft 146 kts 17°
2026-05-07 17:10 38.74567 -9.15503 837 ft 137 kts 17°
2026-05-07 17:10 38.75452 -9.15026 644 ft 138 kts 18°
2026-05-07 17:10 38.76357 -9.14539 454 ft 142 kts 18°
2026-05-07 17:11 38.77212 -9.14092 361 ft 117 kts 21°
2026-05-07 17:11 38.77763 -9.13789 365 ft 61 kts 22°
2026-05-07 17:11 38.78067 -9.13625 368 ft 46 kts 22°
2026-05-07 17:11 38.78312 -9.13436 368 ft 30 kts 47°
2026-05-07 17:12 38.78376 -9.13329 365 ft 0 kts 86°
2026-05-07 17:12 38.78376 -9.13326 364 ft 0 kts 86°
2026-05-07 17:13 38.78376 -9.13311 364 ft 4 kts 93°
2026-05-07 17:13 38.78355 -9.13270 367 ft 8 kts 148°
2026-05-07 17:13 38.78291 -9.13281 363 ft 11 kts 201°
2026-05-07 17:14 38.78212 -9.13320 365 ft 12 kts 202°
2026-05-07 17:14 38.78143 -9.13357 362 ft 2 kts 202°
2026-05-07 17:14 38.78139 -9.13359 364 ft 0 kts 202°
2026-05-07 17:15 38.78138 -9.13360 364 ft 0 kts 202°
2026-05-07 17:15 38.78137 -9.13360 364 ft 0 kts 202°
2026-05-07 17:15 38.78133 -9.13362 365 ft 2 kts 202°
2026-05-07 17:15 38.78114 -9.13373 363 ft 4 kts 202°
2026-05-07 17:16 38.78070 -9.13396 364 ft 10 kts 202°
2026-05-07 17:16 38.77982 -9.13443 367 ft 18 kts 202°
2026-05-07 17:16 38.77861 -9.13509 360 ft 21 kts 203°
2026-05-07 17:16 38.77719 -9.13587 358 ft 23 kts 200°
2026-05-07 17:17 38.77585 -9.13580 357 ft 20 kts 168°
2026-05-07 17:17 38.77436 -9.13541 350 ft 24 kts 168°
2026-05-07 17:17 38.77266 -9.13494 349 ft 26 kts 168°
2026-05-07 17:17 38.77081 -9.13445 351 ft 28 kts 168°
2026-05-07 17:18 38.76882 -9.13391 346 ft 23 kts 168°
2026-05-07 17:18 38.76746 -9.13384 354 ft 21 kts 211°
2026-05-07 17:18 38.76653 -9.13495 353 ft 18 kts 256°
2026-05-07 17:18 38.76623 -9.13653 355 ft 14 kts 236°
2026-05-07 17:19 38.76576 -9.13663 354 ft 5 kts 175°
2026-05-07 17:19 38.76546 -9.13690 354 ft 6 kts 232°
2026-05-07 17:19 38.76501 -9.13693 350 ft 7 kts 167°
2026-05-07 17:19 38.76471 -9.13685 358 ft 0 kts 168°